| time (UTC) | temp C | wind direction | speed KPH | gust KPH | rain 1hr cm | rain 24hr cm | rain mn cm | humidity % | barometer mb |
| 20260904151512 | 31 | 357 | 4.8 | 12.9 | 0.00 | 0.00 | 0.00 | 77 | 1017.5 |
| 20260904150024 | 31 | 357 | 1.6 | 11.3 | 0.00 | 0.00 | 0.00 | 78 | 1017.5 |
| 20260904144505 | 31 | 15 | 1.6 | 9.7 | 0.00 | 0.00 | 0.00 | 78 | 1017.5 |
| 20260904143002 | 31 | 260 | 3.2 | 6.4 | 0.00 | 0.00 | 0.00 | 78 | 1017.5 |
| 20260904141609 | 30 | 303 | 1.6 | 9.7 | 0.00 | 0.00 | 0.00 | 79 | 1017.3 |
| 20260904140055 | 30 | 315 | 3.2 | 9.7 | 0.00 | 0.00 | 0.00 | 79 | 1017.2 |
| 20260904134557 | 30 | 242 | 1.6 | 6.4 | 0.00 | 0.00 | 0.00 | 79 | 1017.3 |
| 20260904133046 | 28 | 216 | 3.2 | 6.4 | 0.00 | 0.00 | 0.00 | 80 | 1017.2 |
| 20260904131643 | 28 | 230 | 0.0 | 6.4 | 0.00 | 0.00 | 0.00 | 80 | 1017.3 |
| 20260904130040 | 28 | 251 | 0.0 | 8.0 | 0.00 | 0.00 | 0.00 | 80 | 1017.3 |
| 20260904124538 | 27 | 216 | 0.0 | 1.6 | 0.00 | 0.00 | 0.00 | 81 | 1017.2 |
| 20260904123036 | 25 | 153 | 0.0 | 1.6 | 0.00 | 0.00 | 0.00 | 84 | 1017.2 |
| 20260904121533 | -17 | 0.0 | 0.0 | 0.00 | 0.00 | 0.00 | 1017.2 | ||
| 20260904120027 | -17 | 0.0 | 0.0 | 0.00 | 0.00 | 0.00 | 1017.2 | ||
| 20260904114531 | -17 | 0.0 | 0.0 | 0.00 | 0.00 | 0.00 | 1016.9 | ||
| 20260904113017 | -17 | 0.0 | 0.0 | 0.00 | 0.00 | 0.00 | 1016.9 | ||
| 20260904111522 | -17 | 0.0 | 0.0 | 0.00 | 0.00 | 0.00 | 1016.6 | ||
| 20260904110007 | -17 | 0.0 | 0.0 | 0.00 | 0.00 | 0.00 | 1016.6 | ||
| 20260904104601 | -17 | 0.0 | 0.0 | 0.00 | 0.00 | 0.00 | 1016.5 | ||
| 20260904103056 | -17 | 0.0 | 0.0 | 0.00 | 0.00 | 0.00 | 1016.4 | ||
| 20260904101551 | -17 | 0.0 | 0.0 | 0.00 | 0.00 | 0.00 | 1016.3 | ||
| 20260904100050 | 25 | 152 | 0.0 | 0.0 | 0.00 | 0.00 | 0.00 | 88 | 1016.1 |
| 20260904094545 | 25 | 155 | 0.0 | 0.0 | 0.00 | 0.00 | 0.00 | 88 | 1015.8 |
| 20260904093042 | 25 | 162 | 0.0 | 0.0 | 0.00 | 0.00 | 0.00 | 89 | 1015.9 |
| 20260904091539 | 26 | 156 | 0.0 | 4.8 | 0.00 | 0.00 | 0.00 | 88 | 1015.9 |
| 20260904090036 | 26 | 164 | 1.6 | 4.8 | 0.00 | 0.00 | 0.00 | 88 | 1015.8 |
| 20260904084531 | 26 | 173 | 3.2 | 6.4 | 0.00 | 0.00 | 0.00 | 88 | 1015.8 |
| 20260904083038 | 26 | 175 | 3.2 | 6.4 | 0.00 | 0.00 | 0.00 | 87 | 1015.6 |
| 20260904081525 | 26 | 163 | 1.6 | 3.2 | 0.00 | 0.00 | 0.00 | 87 | 1015.6 |
| 20260904080023 | 26 | 163 | 3.2 | 4.8 | 0.00 | 0.00 | 0.00 | 87 | 1015.6 |
| 20260904074520 | 26 | 157 | 3.2 | 6.4 | 0.00 | 0.00 | 0.00 | 87 | 1015.6 |
| 20260904073023 | 26 | 162 | 1.6 | 4.8 | 0.00 | 0.00 | 0.00 | 88 | 1015.6 |
| 20260904071517 | 26 | 164 | 0.0 | 1.6 | 0.00 | 0.00 | 0.00 | 88 | 1015.7 |
| 20260904070011 | 27 | 169 | 0.0 | 1.6 | 0.00 | 0.00 | 0.00 | 87 | 1015.6 |
| 20260904064506 | 27 | 170 | 0.0 | 4.8 | 0.00 | 0.00 | 0.00 | 86 | 1015.7 |
| 20260904063123 | 27 | 168 | 1.6 | 6.4 | 0.00 | 0.00 | 0.00 | 86 | 1015.6 |
| 20260904061604 | 27 | 161 | 1.6 | 6.4 | 0.00 | 0.00 | 0.00 | 86 | 1015.8 |
| 20260904060101 | 27 | 159 | 0.0 | 3.2 | 0.00 | 0.00 | 0.00 | 87 | 1015.7 |
| 20260904054558 | 27 | 156 | 1.6 | 4.8 | 0.00 | 0.00 | 0.00 | 87 | 1015.7 |
| 20260904053054 | 28 | 153 | 1.6 | 6.4 | 0.00 | 0.00 | 0.00 | 86 | 1015.7 |
| 20260904051556 | 28 | 185 | 3.2 | 8.0 | 0.00 | 0.00 | 0.00 | 86 | 1015.5 |
| 20260904050048 | 28 | 180 | 1.6 | 6.4 | 0.00 | 0.00 | 0.00 | 85 | 1015.4 |
| 20260904044544 | 28 | 173 | 4.8 | 9.7 | 0.00 | 0.00 | 0.00 | 85 | 1015.5 |
| 20260904043046 | 29 | 160 | 4.8 | 11.3 | 0.00 | 0.00 | 0.00 | 84 | 1015.6 |
| 20260904041539 | 29 | 163 | 3.2 | 9.7 | 0.00 | 0.00 | 0.00 | 83 | 1015.6 |
| 20260904040038 | 29 | 151 | 3.2 | 6.4 | 0.00 | 0.00 | 0.00 | 83 | 1015.5 |
| 20260904034542 | 30 | 182 | 3.2 | 9.7 | 0.00 | 0.00 | 0.00 | 82 | 1015.5 |
| 20260904033033 | 30 | 135 | 3.2 | 6.4 | 0.00 | 0.00 | 0.00 | 81 | 1015.4 |
| 20260904031532 | 30 | 190 | 0.0 | 8.0 | 0.00 | 0.00 | 0.00 | 80 | 1015.4 |
| 20260904030031 | 30 | 171 | 3.2 | 8.0 | 0.00 | 0.00 | 0.00 | 80 | 1015.4 |
| 20260904024528 | 30 | 167 | 1.6 | 8.0 | 0.00 | 0.00 | 0.00 | 80 | 1015.3 |
| 20260904023026 | 30 | 181 | 0.0 | 4.8 | 0.00 | 0.00 | 0.00 | 80 | 1015.1 |
| 20260904021528 | 30 | 176 | 0.0 | 6.4 | 0.00 | 0.00 | 0.00 | 79 | 1015.1 |
| 20260904020024 | 30 | 148 | 1.6 | 4.8 | 0.00 | 0.00 | 0.00 | 79 | 1014.9 |
| 20260904014521 | 31 | 161 | 1.6 | 4.8 | 0.00 | 0.00 | 0.00 | 79 | 1014.7 |
| 20260904013019 | 31 | 176 | 0.0 | 1.6 | 0.00 | 0.00 | 0.00 | 78 | 1014.6 |
| 20260904011519 | 31 | 169 | 0.0 | 3.2 | 0.00 | 0.00 | 0.00 | 77 | 1014.6 |
| 20260904010016 | 31 | 168 | 0.0 | 3.2 | 0.00 | 0.00 | 0.00 | 76 | 1014.4 |
| 20260904004513 | 32 | 163 | 0.0 | 1.6 | 0.00 | 0.00 | 0.00 | 75 | 1014.4 |
| 20260904003019 | 32 | 171 | 0.0 | 3.2 | 0.00 | 0.00 | 0.00 | 73 | 1014.3 |
| 20260904001514 | 33 | 179 | 0.0 | 3.2 | 0.00 | 0.00 | 0.00 | 72 | 1014.1 |
| 20260904000007 | 34 | 171 | 1.6 | 6.4 | 0.00 | 0.00 | 0.00 | 69 | 1014.0 |
| 20260903234506 | 35 | 171 | 3.2 | 8.0 | 0.00 | 0.00 | 0.00 | 68 | 1014.1 |
| 20260903233005 | 35 | 256 | 1.6 | 11.3 | 0.00 | 0.00 | 0.00 | 67 | 1014.0 |
| 20260903231515 | 36 | 160 | 1.6 | 6.4 | 0.00 | 0.00 | 0.00 | 64 | 1014.0 |
| 20260903230002 | 36 | 287 | 1.6 | 8.0 | 0.00 | 0.00 | 0.00 | 63 | 1014.0 |
| 20260903224504 | 36 | 137 | 3.2 | 11.3 | 0.00 | 0.00 | 0.00 | 62 | 1014.0 |
| 20260903223059 | 37 | 157 | 3.2 | 14.5 | 0.00 | 0.00 | 0.00 | 63 | 1013.9 |
| 20260903221559 | 37 | 175 | 0.0 | 9.7 | 0.00 | 0.00 | 0.00 | 61 | 1014.0 |
| 20260903220054 | 36 | 321 | 1.6 | 6.4 | 0.00 | 0.00 | 0.00 | 61 | 1013.9 |
| 20260903214607 | 37 | 254 | 0.0 | 9.7 | 0.00 | 0.00 | 0.00 | 60 | 1014.1 |
| 20260903213058 | 37 | 290 | 3.2 | 9.7 | 0.00 | 0.00 | 0.00 | 60 | 1014.0 |
| 20260903211545 | 37 | 246 | 4.8 | 14.5 | 0.00 | 0.00 | 0.00 | 59 | 1014.3 |
| 20260903210059 | 37 | 165 | 3.2 | 12.9 | 0.00 | 0.00 | 0.00 | 61 | 1014.3 |
| 20260903204546 | 36 | 126 | 1.6 | 11.3 | 0.00 | 0.00 | 0.00 | 62 | 1014.5 |
| 20260903203041 | 36 | 167 | 8.0 | 16.1 | 0.00 | 0.00 | 0.00 | 62 | 1014.6 |
| 20260903201536 | 37 | 246 | 3.2 | 9.7 | 0.00 | 0.00 | 0.00 | 61 | 1014.8 |
| 20260903200031 | 37 | 282 | 3.2 | 9.7 | 0.00 | 0.00 | 0.00 | 62 | 1014.9 |
| 20260903194523 | 36 | 317 | 0.0 | 12.9 | 0.00 | 0.00 | 0.00 | 62 | 1015.1 |
| 20260903193017 | 36 | 202 | 3.2 | 8.0 | 0.00 | 0.00 | 0.00 | 62 | 1015.4 |
| 20260903191514 | 36 | 357 | 4.8 | 12.9 | 0.00 | 0.00 | 0.00 | 63 | 1015.6 |
| 20260903190007 | 36 | 211 | 4.8 | 17.7 | 0.00 | 0.00 | 0.00 | 64 | 1015.9 |
| 20260903184600 | 35 | 205 | 3.2 | 9.7 | 0.00 | 0.00 | 0.00 | 65 | 1016.2 |
| 20260903183057 | 35 | 249 | 3.2 | 16.1 | 0.00 | 0.00 | 0.00 | 64 | 1016.3 |
| 20260903181549 | 35 | 258 | 3.2 | 14.5 | 0.00 | 0.00 | 0.00 | 65 | 1016.4 |
| 20260903180044 | 35 | 263 | 6.4 | 14.5 | 0.00 | 0.00 | 0.00 | 66 | 1016.5 |
| 20260903174536 | 35 | 350 | 3.2 | 19.3 | 0.00 | 0.00 | 0.00 | 67 | 1016.7 |
| 20260903173031 | 35 | 351 | 3.2 | 16.1 | 0.00 | 0.00 | 0.00 | 68 | 1016.8 |
| 20260903171523 | 34 | 243 | 4.8 | 16.1 | 0.00 | 0.00 | 0.00 | 70 | 1016.9 |
| 20260903170017 | 34 | 339 | 6.4 | 14.5 | 0.00 | 0.00 | 0.00 | 69 | 1017.0 |
| 20260903164511 | 33 | 240 | 0.0 | 8.0 | 0.00 | 0.00 | 0.00 | 72 | 1017.2 |
| 20260903163005 | 33 | 229 | 3.2 | 12.9 | 0.00 | 0.00 | 0.00 | 73 | 1017.3 |
| 20260903161559 | 33 | 329 | 1.6 | 11.3 | 0.00 | 0.00 | 0.00 | 74 | 1017.3 |
| 20260903160104 | 33 | 258 | 3.2 | 11.3 | 0.00 | 0.00 | 0.00 | 75 | 1017.4 |
| 20260903154604 | 32 | 282 | 1.6 | 11.3 | 0.00 | 0.00 | 0.00 | 76 | 1017.3 |
| 20260903153042 | 32 | 273 | 3.2 | 8.0 | 0.00 | 0.00 | 0.00 | 75 | 1017.4 |